Location: Dal�� Lhota
(48.7500°N, 14.0167°E)
Time: 23:15:17
(UTC+00:00)

Transit 2A - Pass Details

Date: 05 August 2021
Orbit: 594 x 964 km, 66.7° (Epoch: 26 September)

Event Time Altitude Azimuth Distance (km) Brightness Sun altitude
Rises 04:39:31 0° 213° (SSW) 2,840 8.5 7.8°
Reaches altitude 10° 04:41:41 10° 213° (SSW) 1,962 7.7 8.1°
Maximum altitude 04:46:05 89° 127° (SE) 646 5.9 8.8°
Drops below altitude 10° 04:50:53 10° 36° (NE) 2,134 9.3 9.6°
Sets 04:53:20 0° 36° (NE) 3,111 10.0 10.0°
